Вернуться в каталог

STARLINK-11318

АктивенСвязьVLEO
NORAD 61252·PAYLOAD·🇺🇸 United States

Запущен Sep 25, 2024 с Vandenberg Space Force Base

Loading…

Ближайшие Пролёты (ближайшие 24 часа)

TLE

СвежийSource: CelesTrak SupGP

Эпоха: Sep 14, 2026, 20:56 UTC

1 61252C 24175K   26257.87270833  .00058055  00000+0  47813-3 0  2570
2 61252  53.1575 203.9062 0001323  99.6086   1.0305 15.69684400    16

Отслеживайте STARLINK-11318 в реальном времени с AllMySat

Download on the App Store